Regional Weather Roundup
Issued by NWS

Home | Current Version | Previous Version | Graphics & Text | Print | Product List | Glossary On
Versions: 1 2 3 4 5 6 7 8 9 10 11 12 13 14 15 16 17 18 19 20 21 22 23 24 25 26 27 28 29 30 31 32 33 34 35 36 37 38 39 40 41 42 43 44 45 46 47 48 49 50
000
ASUS45 KPSR 050910
RWRAZ

ARIZONA HOURLY REGIONAL WEATHER ROUNDUP
NATIONAL WEATHER SERVICE PHOENIX AZ
200 AM MST SUN JUL 05 2015

NOTE: FAIR INDICATES FEW OR NO CLOUDS BELOW 12,000 FEET WITH NO
SIGNIFICANT WEATHER AND/OR OBSTRUCTIONS TO VISIBILITY.

AZZ001>003-036-051000-
NORTHWEST ARIZONA

CITY           SKY/WX    TMP DP  RH WIND       PRES   REMARKS
BULLHEAD CITY  PTCLDY    97  50  20 SE14      29.75S
KINGMAN        CLEAR     80  50  34 SW10      29.97S
$$

AZZ004>008-015-016-018-051000-
NORTH CENTRAL ARIZONA

CITY           SKY/WX    TMP DP  RH WIND       PRES   REMARKS
GRAND CANYON   PTCLDY    56  52  86 NE3       30.23R
WILLIAMS       CLOUDY    61  55  82 SE7       30.30S
PRESCOTT       CLOUDY    70  56  61 S5        30.12S
FLAGSTAFF      CLOUDY    57  56  96 CALM      30.26F
PAYSON         MOCLDY    64  55  72 CALM      30.15S
PAGE           PTCLDY    80  53  39 S7        30.01R
$$

AZZ009>014-017-051000-
NORTHEAST ARIZONA

CITY           SKY/WX    TMP DP  RH WIND       PRES   REMARKS
WINSLOW        PTCLDY    64  61  90 SE5       30.11F
SAINT JOHNS    MOCLDY    62  58  86 SE5       30.17S
WINDOW ROCK    CLOUDY    62  57  83 CALM      30.23S
SHOW LOW       MOCLDY    57  54  88 S5        30.22S
$$

AZZ023-051000-
GREATER PHOENIX AREA

CITY           SKY/WX    TMP DP  RH WIND       PRES   REMARKS
PHOENIX        CLOUDY    93  56  28 W12       29.81S
BUCKEYE        PTCLDY    84  57  39 CALM      29.84S
LUKE AFB       MOCLDY    90  57  33 SW10      29.81S
DEER VALLEY    MOCLDY    87  61  41 N3        29.84S
SCOTTSDALE     MOCLDY    91  56  30 W8        29.86R
MESA-GATEWAY   CLOUDY    90  59  35 N6        29.85F
$$

AZZ027-028-051000-
SOUTHWEST MARICOPA COUNTY AND PINAL COUNTY

CITY           SKY/WX    TMP DP  RH WIND       PRES   REMARKS
CASA GRANDE    CLOUDY    90  55  31 CALM      29.84S
GILA BEND      FAIR      88  58  36 SW6       29.81S
$$

AZZ503-504-507>509-051000-
SOUTHEAST ARIZONA

CITY           SKY/WX    TMP DP  RH WIND       PRES   REMARKS
TUCSON         MOCLDY    84  57  39 E3        29.96F
DAVIS-MONTHAN  MOCLDY    82  58  44 E8        29.95F
NOGALES        MOCLDY    73  59  61 S3        30.07S
SIERRA VISTA   CLOUDY    69  61  76 S8        30.13F
DOUGLAS        RAIN      67  65  93 SE6       30.12F FOG
SAFFORD        CLOUDY    81  61  50 E7        29.98R
$$

AZZ020-021-025-026-031-051000-
SOUTHWEST ARIZONA

CITY           SKY/WX    TMP DP  RH WIND       PRES   REMARKS
YUMA           CLEAR     87  70  56 SE17      29.74S
$$

CAZ031-033-041-043-047-048-061-051000-
SOUTHERN CALIFORNIA

CITY           SKY/WX    TMP DP  RH WIND       PRES   REMARKS
DOWNTOWN L.A.  CLOUDY    65  59  81 CALM      29.94S
L.A. AIRPORT   CLOUDY    64  60  87 SW3       29.94S
SAN DIEGO      MOCLDY    67  58  72 W5        29.95S
BURBANK        MOCLDY    63  58  83 S5        29.94S HAZE
ONTARIO        CLEAR     64  58  80 W6        29.94S HAZE
RIVERSIDE      CLEAR     65  58  78 W5        29.94S
PALM SPRINGS   CLEAR     85  58  39 SW3       29.80F
EL CENTRO NAS  CLEAR     84  67  56 CALM      29.75S
IMPERIAL       CLEAR     85  70  60 E5        29.73R
BLYTHE         CLEAR     89  62  40 S8        29.76S
NEEDLES        PTCLDY    96  50  20 SW9       29.76S
$$

NVZ020-UTZ003-051000-
SOUTHERN NEVADA-UTAH

CITY           SKY/WX    TMP DP  RH WIND       PRES   REMARKS
LAS VEGAS      PTCLDY    91  50  24 S10       29.80R
SALT LAKE CITY CLOUDY    79  57  46 SE3       29.94S
$$

NMZ009-TXZ055-051000-
NEW MEXICO-WEST TEXAS

CITY           SKY/WX    TMP DP  RH WIND       PRES   REMARKS
ALBUQUERQUE    CLOUDY    69  57  65 SE7       30.13S
EL PASO        CLOUDY    72  67  84 SE6       30.02F
$$


........................KEY........................
SKY/WX - SKY CONDITION/WEATHER
TMP    - TEMPERATURE IN FAHRENHEIT
DP     - DEW POINT IN FAHRENHEIT
RH     - RELATIVE HUMIDITY IN PERCENT
WIND   - DIRECTION AND SPEED IN MILES PER HOUR (MPH)
VRB    - VARIABLE WIND DIRECTION
PRES   - MEAN SEA LEVEL PRESSURE IN INCHES OF MERCURY
         F - FALLING PRESSURE   R - RISING PRESSURE
         S - STEADY PRESSURE
VSB    - VISIBILITY IN MILES
HX     - HEAT INDEX IN FAHRENHEIT
WCI    - WIND CHILL INDEX IN FAHRENHEIT
TC     - TEMPERATURE IN CELSIUS WHICH IS ALSO KNOWN AS
         TEMPERATURE IN CENTIGRADE
AFB    - AIR FORCE BASE
         LUKE AFB IS LUKE AIR FORCE BASE
         DAVIS-MONTHAN IS DAVIS-MONTHAN AIR FORCE BASE
NAS    - NAVAL AIR STATION
         EL CENTRO NAS IS EL CENTRO NAVAL AIR STATION
N/A    - NOT AVAILABLE



USA.gov is the U.S. government's official web portal to all federal, state and local government web resources and services.